Home > Weather > Iserlohn > Past weeks

Flag for Germany Weather for the Past 2 Weeks in Iserlohn, North Rhine-Westphalia, Germany

Now
46 °F

Sunny.


Feels Like: 45 °F
Forecast: 48 / 69 °F
Wind: 3 mph from North

Location: Dortmund / Wickede

Current Time: May 5, 2016 at 9:14:03 AM

Latest Report: May 5, 2016 at 8:20 AM


Visibility: 10 mi

Pressure: 30.33 "Hg

Humidity: 66%

Dew Point: 36 °F

Location of IserlohnLocation

Historic Weather in Iserlohn — Graph

°F

Iserlohn Temperature Yesterday

Maximum temperature yesterday: 55 °F (at 3:20 PM)
Minimum temperature yesterday: 36 °F (at 6:20 AM)
Average temperature yesterday: 50 °F

High & Low Weather Summary for the Past Weeks

 TemperatureHumidityPressure
High66 °F (May 2, 4:50 PM)93% (Apr 20, 7:20 AM)30.48 "Hg (Apr 20, 7:20 AM)
Low34 °F (Apr 20, 7:20 AM)31% (May 4, 5:50 PM)29.45 "Hg (Apr 26, 1:50 PM)
Average46 °F64%30.04 "Hg
* Reported Apr 20 7:20 AM — May 5 7:20 AM, Iserlohn, Weather by CustomWeather, © 2016

Note: Actual official high and low records may vary slightly from our data, if they occured in-between our weather recording intervals... More about our weather records

Advertising

Iserlohn Weather History for the Previous 24 Hours

Scroll right to see more
 ConditionsComfort  
Time TempWeatherWind HumidityBarometerVisibility
7:20 AM
Thu, May 5
45 °FSunny.3 mph57%30.33 "Hg10 mi
6:50 AM39 °FClear.3 mph70%30.33 "Hg10 mi
6:20 AM37 °FClear.1 mph70%30.33 "Hg10 mi
5:50 AM41 °FClear.3 mph66%30.33 "Hg10 mi
5:20 AM41 °FClear.3 mph61%30.33 "Hg10 mi
9:50 PM
Wed, May 4
48 °FSunny.6 mph54%30.36 "Hg10 mi
9:20 PM50 °FSunny.6 mph47%30.36 "Hg10 mi
8:50 PM52 °FSunny.6 mph44%30.36 "Hg10 mi
8:20 PM54 °FSunny.6 mph38%30.36 "Hg10 mi
7:50 PM54 °FPassing clouds.8 mph38%30.36 "HgN/A
7:20 PM55 °FPassing clouds.9 mph33%30.36 "HgN/A
6:50 PM55 °FPassing clouds.8 mph33%30.36 "HgN/A
6:20 PM55 °FPassing clouds.8 mph33%30.36 "HgN/A
5:50 PM55 °FPassing clouds.7 mph31%30.36 "HgN/A
5:20 PM55 °FPassing clouds.7 mph38%30.36 "HgN/A
4:50 PM55 °FPassing clouds.8 mph33%30.36 "HgN/A
4:20 PM55 °FSunny.5 mph38%30.36 "Hg10 mi
3:50 PM55 °FPassing clouds.8 mph33%30.39 "HgN/A
3:20 PM55 °FRefreshingly cool.3 mph38%30.39 "HgN/A
2:50 PM54 °FPassing clouds.7 mph44%30.39 "HgN/A
2:20 PM54 °FSunny.5 mph41%30.39 "Hg10 mi
1:50 PM52 °FSunny.6 mph38%30.39 "Hg10 mi
1:20 PM54 °FPassing clouds.5 mph41%30.39 "HgN/A
12:50 PM54 °FPassing clouds.6 mph47%30.39 "HgN/A
12:20 PM52 °FScattered clouds.6 mph44%30.42 "HgN/A
11:50 AM52 °FScattered clouds.6 mph47%30.42 "HgN/A
11:20 AM52 °FScattered clouds.7 mph47%30.42 "HgN/A
10:50 AM50 °FPassing clouds.6 mph54%30.42 "HgN/A
10:20 AM50 °FPassing clouds.3 mph58%30.42 "HgN/A
9:50 AM48 °FPassing clouds.2 mph58%30.42 "HgN/A
9:20 AM46 °FSunny.2 mph66%30.42 "Hg10 mi
Weather by CustomWeather, © 2016

See weather overviewHow to use our weather pages